Weather in Novouspenovka

Russia / Orenburg Oblast     50°52′08″N   55°28′39″E
temp.,
°C
wind,
m/s
gust,
m/s
humid.,
%
clouds,
%
prec.,
mm/h
press.,
hPa
HPBL,
m
1 march, mon
mon123:00−16wsw5996100 0.2 1012264
02:00−16wsw5897100 0.1 1013223
05:00−18wsw5798100 0.1 1015166
08:00−18wsw469896 0.1 1017166
11:00−16wsw469696 0.2 1019215
14:00−14wsw469598 0.1 1020270
17:00−13wsw469499 0.1 1020399
20:00−14wsw5896100 0.1 1022249
2 march, tue
tue223:00−17w469998 0.2 1023120
02:00−21wsw45100100 0.0 102382
05:00−23w4510099 0.1 102382
08:00−23sw4510088 0.0 102369
11:00−19sw699785 0.0 1023222
14:00−15sw8129498 0.0 1020357
17:00−10sw9149399 0.1 1017518
20:00−7sw101794100 0.4 1014669
3 march, wed
wed323:00−5sw101695100 1.6 1012788
02:00−4sw111794100 1.3 1009838
05:00−3sw101696100 2.8 1007848
08:00−3sw91596100 1.4 1006729
11:00−2sw91397100 2.9 1006725
14:00−1sw81198100 1.7 1004709
17:00−1sw71097100 3.3 1004647
20:00−1sw5998100 1.4 1004415
4 march, thu
thu423:00−3w4998100 2.2 1005254
02:00−7wnw5897100 0.3 1005179
05:00−10w479697 0.4 1008134
08:00−11w589787 0.1 1010198
11:00−10w6109693 0.1 1012288
14:00−9w6994100 0.0 1014398
17:00−8wsw6119194 0.0 1015368
20:00−10sw7159574 0.1 1016435
5 march, fri
fri523:00−4sw10169287 0.3 1016877
02:00−4sw101792100 0.1 1013899
05:00−2sw121890100 0.5 1013933
08:00−4sw12218698 0.0 1013583
11:00−3sw12198684 0.0 1013727
14:00−1sw12188799 0.0 1014899
17:00−1sw11169299 0.2 1015899
20:00−1sw91597100 1.8 1015733